Retour au catalogue

STARLINK-31364

ActifCommunicationsVLEO
NORAD 59463·PAYLOAD·🇺🇸 United States

Lancé Apr 10, 2024 depuis Cape Canaveral Space Force Station

Loading…

Prochains Passages (prochaines 24 heures)

TLE

FraisSource: CelesTrak SupGP

Époque: Sep 15, 2026, 02:36 UTC

1 59463C 24068J   26258.10881944 -.00023120  00000+0 -83737-3 0  2583
2 59463  43.0033  41.1334 0001390 267.0509 108.8065 15.27592069    15

Suivez STARLINK-31364 en temps réel avec AllMySat

Download on the App Store